Home   Weather   Manali   Past weeks
Flag for India

Past Weather in Manali, Himachal Pradesh, India — Yesterday and Last 2 Weeks

Now
90 °F

Scattered clouds.


Feels Like: 100 °F
Forecast: 70 / 52 °F
Wind: 6 mph from East

Location: Amritsar Airport

Current Time: Jul 18, 2019 at 7:20:11 pm

Latest Report: Jul 18, 2019 at 6:30 pm


Visibility: 2 mi

Pressure: 29.53 "Hg (23.89 "Hg at 1894m altitude)

Humidity: 63%

Dew Point: 75 °F

Location of ManaliLocation

Past Weather in Manali — Graph

°F

Manali Temperature Yesterday

Maximum temperature yesterday: 90 °F (at 3:00 pm)
Minimum temperature yesterday: 73 °F (at 4:00 am)
Average temperature yesterday: 82 °F

High & Low Weather Summary for the Past Weeks

 TemperatureHumidityPressure
High102 °F (Jul 3, 5:30 pm)100% (Jul 4, 11:30 pm)29.86 "Hg (Jul 4, 11:30 pm)
Low72 °F (Jul 13, 6:30 am)35% (Jul 3, 5:30 pm)29.33 "Hg (Jul 5, 5:00 pm)
Average86 °F73%29.46 "Hg
* Reported Jul 3 5:30 pm — Jul 18 5:30 pm, Manali. Weather by CustomWeather, © 2019

Note: Actual official high and low records may vary slightly from our data, if they occured in-between our weather recording intervals... More about our weather records

Advertising

Manali Weather History for the Previous 24 Hours

Scroll right to see more
 ConditionsComfort  
Time TempWeatherWind HumidityBarometerVisibility
5:30 pm
Thu, Jul 18
90 °FScattered clouds.6 mph63%29.53 "Hg3 mi
5:00 pm91 °FScattered clouds.7 mph59%29.53 "Hg3 mi
4:30 pm91 °FScattered clouds.6 mph63%29.53 "Hg3 mi
4:00 pm91 °FScattered clouds.8 mph63%29.53 "Hg3 mi
3:30 pm91 °FScattered clouds.8 mph63%29.53 "Hg3 mi
3:00 pm91 °FScattered clouds.12 mph63%29.56 "Hg3 mi
2:30 pm91 °FScattered clouds.9 mph63%29.56 "Hg3 mi
2:00 pm90 °FScattered clouds.5 mph63%29.59 "Hg3 mi
1:30 pm90 °FScattered clouds.5 mph63%29.62 "Hg2 mi
12:00 pm88 °FScattered clouds.5 mph70%29.62 "Hg2 mi
11:30 am88 °FScattered clouds.5 mph70%29.62 "Hg2 mi
11:00 am86 °FScattered clouds.5 mph75%29.62 "Hg2 mi
10:30 am86 °FScattered clouds.5 mph75%29.62 "Hg2 mi
10:00 am86 °FScattered clouds.5 mph75%29.59 "Hg2 mi
9:30 am84 °FScattered clouds.No wind79%29.59 "Hg2 mi
9:00 am84 °FFog.No wind79%29.59 "Hg2 mi
8:30 am84 °FFog.No wind79%29.59 "Hg1 mi
7:30 am82 °FFog.No wind84%29.59 "Hg1 mi
7:00 am81 °FFog.No wind89%29.59 "Hg1 mi
6:30 am79 °FFog.No wind94%29.59 "Hg1 mi
6:00 am79 °FFog.No wind100%29.56 "Hg1 mi
5:30 am79 °FFog.No wind100%29.56 "Hg1 mi
5:00 am79 °FFog.No wind100%29.59 "Hg2 mi
4:30 am81 °FFog.No wind94%29.59 "Hg2 mi
4:00 am81 °FFog.No wind94%29.59 "Hg2 mi
3:30 am81 °FFog.No wind94%29.59 "Hg2 mi
3:00 am81 °FFog.No wind94%29.59 "Hg2 mi
2:30 am81 °FFog.No wind94%29.59 "Hg2 mi
2:00 am81 °FFog.No wind94%29.59 "Hg2 mi
1:30 am81 °FFog.No wind100%29.59 "Hg2 mi
1:00 am81 °FFog.No wind100%29.59 "Hg2 mi
12:30 am82 °FFog.3 mph94%29.59 "Hg2 mi
12:00 am81 °FFog.No wind100%29.59 "Hg2 mi
11:30 pm
Wed, Jul 17
82 °FFog.No wind94%29.59 "Hg2 mi
11:00 pm82 °FFog.No wind89%29.56 "Hg2 mi
10:30 pm82 °FFog.No wind89%29.56 "Hg2 mi
10:00 pm84 °FFog.No wind84%29.56 "Hg2 mi
9:30 pm84 °FFog.N/A84%29.56 "Hg2 mi
9:00 pm84 °FFog.No wind84%29.56 "Hg2 mi
8:30 pm84 °FFog.No wind79%29.56 "Hg2 mi
8:00 pm84 °FScattered clouds.5 mph74%29.56 "Hg3 mi
7:30 pm86 °FScattered clouds.5 mph70%29.53 "Hg3 mi
7:00 pm86 °FScattered clouds.5 mph70%29.53 "Hg3 mi
Weather by CustomWeather, © 2019

See weather overview